Terminal Aerodrome Forecast
Issued by NWS Quad Cities IA IL

Home | Current Version | Previous Version | Text Only | Print | Product List | Glossary On
Versions: 1 2 3 4 5 6 7 8 9 10 11 12 13 14 15 16 17 18 19 20 21 22 23 24 25 26 27 28 29 30
000
FTUS43 KDVN 311722
TAFMLI
TAF
KMLI 311722Z 3118/0118 15007KT P6SM SCT050
     FM010000 15004KT P6SM FEW050
     FM010800 17004KT 5SM BR SKC
     FM011300 20006KT 5SM BR SKC=

USA.gov is the U.S. government's official web portal to all federal, state and local government web resources and services.